Terug naar catalogus

FENGYUN 1C DEB

ActiefSSO
NORAD 30993·DEBRIS·🇨🇳 China

Gelanceerd May 10, 1999 vanaf Taiyuan Satellite Launch Center

Loading…

Volgende Passages (komende 24 uur)

TLE

VersSource: Space-Track

Epoch: Sep 14, 2026, 12:27 UTC

1 30993U 99025BCK 26257.51883425  .00003145  00000-0  10527-2 0  9997
2 30993  98.8474   2.5070 0015711 276.1075 144.1980 14.38035612  8810

Volg FENGYUN 1C DEB in realtime met AllMySat

Download on the App Store